Location: Newark
(50.6583°N, 14.0417°E)
Time: 06:15:37
(UTC+00:00)

N. Korean satellite - Visible Passes

Search period start: 27 January 2020 00:00
Search period end: 06 February 2020 00:00
Orbit: 454 x 507 km, 97.2° (Epoch: 26 January)

Date Brightness Start Highest point End Pass type
(mag) Time Alt. Az. Time Alt. Az. Time Alt. Az.
27 Jan 7.0 04:51:50 10° NNE 04:55:24 63° ESE 04:59:00 10° S visible
27 Jan 9.8 17:07:01 10° WSW 17:08:54 14° W 17:10:49 10° NW visible
28 Jan 8.4 04:26:33 10° NNE 04:29:48 32° E 04:33:06 10° SSE visible
28 Jan 7.7 06:00:12 10° NNW 06:03:05 23° WNW 06:05:58 10° WSW visible
28 Jan 9.0 16:40:16 10° SSW 16:43:12 26° W 16:46:09 10° NW visible
29 Jan 9.5 04:01:37 10° NE 04:04:08 18° E 04:06:41 10° SE visible
29 Jan 6.9 05:34:18 10° N 05:37:43 41° WNW 05:41:09 10° SW visible
30 Jan 6.5 05:08:39 10° NNE 05:12:16 82° WNW 05:15:55 10° SSW visible
31 Jan 7.5 04:43:12 10° NNE 04:46:44 50° E 04:50:18 10° S visible
31 Jan 9.7 16:57:48 10° SW 17:00:09 17° W 17:02:33 10° NW visible
01 Feb 8.8 04:17:59 10° NE 04:21:07 26° E 04:24:16 10° SSE visible
01 Feb 7.5 05:51:21 10° N 05:54:29 28° WNW 05:57:38 10° SW visible
01 Feb 8.6 16:31:21 10° SSW 16:34:28 32° W 16:37:39 10° NNW visible
02 Feb 9.8 03:53:16 10° NE 03:55:25 15° E 03:57:34 10° SE visible
02 Feb 6.7 05:25:33 10° N 05:29:05 52° WNW 05:32:40 10° SSW visible
03 Feb 6.7 04:59:58 10° NNE 05:03:37 81° ESE 05:07:17 10° S visible
03 Feb 10.1 17:15:55 10° WSW 17:17:10 12° W 17:18:25 10° WNW visible
04 Feb 8.0 04:34:34 10° NNE 04:38:03 40° E 04:41:33 10° S visible
04 Feb 9.5 16:48:41 10° SW 16:51:24 21° W 16:54:09 10° NW visible
05 Feb 9.2 04:09:28 10° NE 04:12:24 22° E 04:15:20 10° SE visible
05 Feb 7.2 05:42:31 10° N 05:45:52 34° WNW 05:49:14 10° SW visible
